Theta_e
329 331 334 336 330 326 331 330 323 324 329 327 325 329 329 325 327 328 327 328 331 338 346 349 349 349 353 355 354 355 355 351 348 351 352 349 345 343 343 344 346 347 348 348 348 349 350 350 350 352 352 354 355 356 356 356 356 356 357 357 357 357 357
331 330 331 337 334 331 333 329 325 331 336 332 332 336 335 326 325 326 324 325 326 327 336 350 354 350 350 353 354 356 357 354 349 349 353 351 345 344 345 345 348 349 349 349 349 350 350 349 349 352 354 355 357 357 356 356 356 356 356 357 356 356 357
332 330 329 334 335 334 335 334 335 333 329 328 329 330 330 325 324 326 323 324 324 323 332 347 353 352 351 350 353 355 357 357 353 349 350 351 345 345 346 347 349 350 350 350 350 351 351 351 350 353 355 356 358 357 356 355 355 355 355 355 355 355 356
329 329 327 326 329 335 335 334 335 333 330 329 327 327 326 323 323 325 324 323 323 327 340 350 353 356 355 351 352 353 354 357 356 352 348 350 349 347 348 350 350 350 350 351 352 352 353 354 352 353 355 356 357 356 355 355 355 355 354 354 354 355 355
323 323 324 324 329 335 333 328 330 331 330 329 328 328 325 322 322 323 325 322 321 335 355 358 356 357 354 352 353 353 351 353 356 356 351 350 352 350 349 350 350 350 350 349 351 353 354 354 354 354 355 355 355 355 355 356 354 354 354 354 354 356 356
316 320 327 328 330 333 330 330 333 333 330 327 325 325 322 320 320 319 323 323 324 341 356 354 355 355 351 353 352 352 351 350 354 357 354 353 353 350 348 349 347 349 350 348 350 354 354 354 354 355 355 355 354 354 355 356 355 354 354 354 354 356 357
319 324 330 330 331 333 332 335 338 336 331 325 321 321 321 321 320 319 324 325 331 348 356 351 354 354 351 354 352 351 351 348 350 354 354 355 354 350 348 348 348 350 351 350 350 353 353 353 355 355 356 356 355 355 356 357 357 355 355 355 356 358 358
324 327 329 330 332 335 333 335 337 335 333 330 325 325 325 322 319 320 323 324 332 350 356 352 353 353 352 353 351 351 351 349 352 353 353 354 353 352 351 349 349 350 351 351 352 354 355 355 355 356 356 356 357 357 358 359 359 358 357 357 359 361 360
318 321 324 325 327 330 332 334 337 336 336 337 335 335 333 325 319 321 322 322 333 351 356 353 353 353 353 352 351 352 353 353 353 352 351 352 352 353 353 351 350 350 352 354 354 355 357 356 356 356 356 358 359 359 360 360 360 360 360 359 361 363 361
315 317 320 322 323 328 331 333 335 336 335 336 336 334 330 323 321 324 324 324 335 352 356 353 353 353 354 355 353 353 354 354 353 353 352 351 352 353 354 353 353 352 353 356 356 357 357 357 357 357 357 358 359 360 361 361 361 362 362 361 363 364 362
315 318 325 329 329 327 327 329 333 334 334 335 333 326 323 325 327 328 333 336 338 347 355 355 354 354 355 356 354 353 354 354 353 355 355 354 354 354 355 355 354 354 354 356 357 358 358 358 358 358 358 359 359 361 361 361 361 362 362 362 363 364 363
320 324 330 334 333 329 326 328 331 333 334 334 329 324 327 335 331 327 339 347 340 345 357 356 354 356 356 356 355 353 354 353 353 355 355 355 355 355 356 356 356 355 354 354 356 356 357 358 358 358 358 359 360 361 361 361 361 362 362 363 364 364 363
322 327 329 331 334 334 331 330 331 332 333 332 329 329 335 339 332 329 341 348 343 348 357 355 354 356 355 355 356 354 353 352 352 354 354 355 354 354 356 356 356 356 354 354 354 354 355 357 358 358 358 359 360 360 360 361 361 361 362 362 364 364 364
320 324 327 330 331 330 330 331 332 333 333 333 332 333 338 340 337 339 344 346 348 352 354 354 354 353 352 353 353 352 353 353 352 353 354 354 354 354 355 356 357 357 355 355 355 353 354 355 356 357 358 358 359 359 360 360 360 361 362 362 364 364 364
317 321 324 326 327 326 326 326 329 331 331 333 332 333 336 336 337 343 344 344 350 353 352 353 353 352 353 352 350 349 351 353 353 352 351 352 353 353 354 354 356 356 356 357 357 356 355 354 355 356 357 358 359 359 359 360 360 361 361 361 363 363 364
315 319 322 323 325 325 321 321 326 328 326 328 331 335 339 337 335 339 339 339 348 354 352 352 352 352 352 351 350 349 349 351 353 353 352 352 352 352 353 353 353 354 354 355 356 356 356 355 355 356 357 358 358 359 359 360 360 360 360 360 361 361 363
314 318 321 321 322 320 317 321 328 330 329 332 333 333 337 341 341 338 336 340 350 354 351 352 353 352 350 349 348 349 350 351 351 352 352 352 351 351 352 353 352 352 353 354 355 355 355 354 354 355 356 356 357 358 359 359 360 359 359 360 360 361 361
314 318 322 321 318 316 321 330 335 335 336 338 337 335 337 343 346 345 343 348 352 351 351 353 352 350 348 346 346 348 348 347 346 347 347 347 347 348 349 350 350 351 352 352 353 353 354 354 353 354 354 354 355 356 356 357 358 358 359 359 359 359 360
315 318 320 318 316 319 327 334 336 337 339 340 341 341 340 342 345 348 349 350 351 351 350 349 348 347 345 344 344 344 344 343 344 344 343 343 343 343 343 344 345 347 348 348 349 351 352 352 353 353 353 353 353 354 354 354 355 357 357 357 357 358 358
317 317 316 317 319 322 327 331 333 336 338 338 338 337 336 339 343 347 350 350 352 351 348 346 346 345 345 344 342 341 342 342 342 341 341 340 340 339 339 340 340 342 343 344 345 346 347 349 351 351 352 352 353 353 353 353 353 355 358 358 357 358 357
319 315 314 317 319 320 324 328 330 332 333 335 337 334 333 336 341 345 349 350 350 349 347 347 345 344 346 347 344 340 340 340 340 339 339 339 338 338 338 337 338 340 340 341 341 342 344 345 347 349 350 350 351 350 351 351 351 353 355 355 355 355 354
320 317 315 318 317 317 322 327 329 331 331 333 337 334 333 335 338 342 348 350 348 347 347 347 345 346 349 350 346 342 339 339 338 338 338 338 337 337 336 336 337 338 338 339 339 340 341 342 343 345 346 346 345 344 344 345 346 346 346 347 349 351 352
319 318 316 317 316 318 324 330 331 332 331 334 336 331 329 335 339 341 346 349 347 346 346 347 347 348 350 350 346 342 339 338 338 337 336 336 336 335 335 335 335 336 337 337 337 338 339 339 340 340 341 340 339 338 338 338 338 338 338 338 341 344 347
316 317 316 316 316 321 331 334 331 330 333 336 332 325 327 336 341 341 344 348 347 346 347 347 348 349 350 348 344 339 337 336 337 338 337 336 336 335 334 333 334 334 334 335 336 337 338 337 337 337 337 336 335 334 334 333 333 333 334 335 337 339 343
314 316 316 315 317 326 335 334 330 332 334 331 325 325 331 340 341 341 343 345 346 347 346 346 347 348 346 343 339 336 335 335 335 337 337 336 335 334 333 333 333 333 333 333 334 335 336 335 335 335 335 335 333 333 333 332 332 332 332 334 336 337 339
315 317 317 316 318 328 334 333 333 334 329 324 325 332 339 341 340 341 342 342 344 345 345 344 344 343 341 338 336 333 332 332 334 336 336 335 335 334 334 334 334 334 334 333 332 333 334 334 334 334 334 333 332 332 332 330 330 330 332 333 335 335 337
318 317 318 316 319 328 334 333 334 333 329 329 334 338 340 341 340 341 341 342 343 342 342 342 342 341 339 336 333 330 329 330 333 335 335 335 335 335 335 334 334 333 333 332 331 331 332 332 332 333 332 332 331 331 330 329 327 327 328 329 330 331 332
319 315 318 322 326 331 333 332 334 335 334 336 338 337 337 340 340 340 341 343 342 341 342 342 341 339 337 334 331 328 327 328 332 333 333 333 333 333 332 332 332 331 331 330 330 329 330 330 331 332 331 330 329 329 328 325 323 321 321 322 325 326 326
323 322 326 332 334 334 332 332 335 337 335 335 336 335 337 339 340 340 342 343 342 340 341 342 340 338 335 333 330 327 325 327 330 331 331 331 331 330 329 329 328 327 327 327 326 327 328 328 328 329 329 329 328 328 327 325 324 323 323 324 325 326 326
327 329 332 333 333 334 334 332 334 336 335 335 335 336 338 339 339 340 341 342 341 339 338 340 341 339 334 330 328 325 325 327 329 329 329 329 328 328 327 327 326 326 325 325 324 325 325 326 326 326 327 327 328 328 328 327 327 326 325 326 326 327 327
324 327 334 335 334 336 337 335 335 336 335 335 336 336 337 338 337 339 340 341 341 339 337 338 339 338 334 329 327 326 325 326 328 330 330 329 329 328 327 327 326 326 326 326 325 325 325 326 326 326 326 327 327 326 327 327 328 327 327 326 327 328 327
326 330 337 338 335 336 337 335 335 336 335 335 336 335 335 336 336 337 339 339 340 339 338 337 337 337 334 331 329 328 328 328 329 329 330 331 331 330 329 328 327 326 326 326 326 327 327 327 327 327 327 328 327 326 326 326 327 328 328 326 325 325 324
329 333 336 336 336 337 337 336 336 336 336 337 337 335 335 336 336 336 337 338 338 338 336 336 336 335 332 330 330 329 328 329 330 329 328 329 331 331 330 328 327 327 326 326 326 326 327 328 328 328 327 327 327 326 326 327 327 328 327 325 324 322 322
325 328 334 336 336 337 336 335 334 335 335 336 337 336 336 337 336 336 335 335 336 336 335 334 333 331 328 326 327 328 328 329 329 328 327 326 327 329 330 329 328 327 327 325 325 326 326 327 327 326 326 326 326 326 326 327 328 328 326 325 324 323 322
324 328 334 336 335 334 334 333 333 333 333 335 336 336 336 336 336 335 334 333 334 334 332 328 326 327 327 325 324 327 328 326 326 326 326 325 326 327 328 329 329 328 328 327 327 326 326 326 325 324 324 325 325 326 326 327 328 328 327 325 324 324 324
328 330 333 334 332 332 332 331 331 333 334 334 334 335 335 334 335 335 333 333 334 334 332 331 328 328 328 326 325 327 328 326 324 325 326 326 327 327 327 328 329 329 330 330 329 328 328 327 326 326 326 325 325 325 325 326 327 327 327 326 325 325 325
331 332 333 331 329 329 329 328 328 332 335 333 332 333 334 334 334 334 333 334 334 333 333 334 333 332 330 328 326 328 329 327 326 325 326 326 327 328 328 329 329 329 329 330 330 329 329 328 327 327 327 327 326 326 326 326 327 327 327 326 326 326 325
Wind_Speed
4 7 5 4 5 3 2 5 7 4 3 5 4 6 6 4 5 5 3 4 3 1 4 6 5 5 9 10 11 11 11 13 15 14 14 15 15 15 15 14 14 16 18 19 19 20 19 19 19 19 19 19 19 18 18 19 19 18 18 18 17 16 15
2 4 6 5 1 2 1 4 3 3 1 4 2 3 5 5 5 4 3 5 4 2 1 4 7 8 9 11 11 11 11 11 14 14 13 14 16 16 15 14 13 15 18 19 19 19 20 20 19 20 20 19 19 19 19 19 20 19 19 18 18 17 16
4 3 5 5 4 2 4 3 2 1 4 5 5 4 6 5 5 4 4 6 4 3 1 1 5 7 8 11 12 12 12 12 12 13 14 15 17 16 14 13 12 13 16 19 19 19 19 19 20 20 21 20 20 20 19 19 20 20 19 18 18 18 17
3 4 5 4 5 3 4 4 4 3 2 3 3 3 5 6 5 4 5 5 3 1 3 4 2 2 4 8 10 11 13 14 11 11 12 15 16 14 12 12 11 12 16 19 20 20 19 19 20 20 20 20 20 19 19 19 19 19 20 19 18 18 18
3 3 2 3 4 6 4 4 5 4 2 2 3 4 5 6 6 4 5 6 2 2 4 6 6 4 4 6 8 10 11 14 13 11 12 13 13 12 11 10 10 12 16 20 20 20 20 19 19 19 19 20 20 19 19 20 20 20 20 20 19 18 18
4 0 4 7 4 6 6 5 5 6 4 3 4 5 6 6 7 5 5 6 2 3 3 5 6 5 3 4 6 8 9 12 13 12 12 11 10 11 11 11 11 13 16 19 19 20 19 19 19 19 19 19 19 19 19 20 20 20 20 20 19 19 18
1 4 3 7 2 3 5 4 4 6 3 3 5 4 4 5 6 5 3 4 3 3 4 4 5 5 4 3 4 5 6 9 12 13 12 10 10 12 12 11 11 14 17 19 19 19 20 19 19 19 19 18 19 19 19 19 20 20 20 19 19 18 18
2 4 3 4 2 2 6 3 2 4 3 3 3 2 4 5 5 4 2 3 2 2 3 3 4 4 3 2 1 2 3 4 8 11 10 8 10 11 11 10 12 14 15 17 17 18 19 19 19 19 19 18 18 19 19 19 19 20 19 18 18 18 18
5 6 6 3 2 5 5 2 2 3 2 2 3 2 4 6 5 5 5 4 1 1 2 2 3 3 3 2 1 3 4 5 6 8 8 8 8 9 11 11 12 12 13 14 15 16 18 18 19 19 19 19 19 19 19 19 19 19 18 18 18 19 19
7 5 4 3 2 4 4 2 2 3 2 3 4 3 5 6 4 3 4 3 1 1 1 2 3 3 3 3 2 4 5 6 5 5 6 7 8 9 11 11 10 10 10 12 15 16 16 18 18 18 19 19 19 19 20 20 19 19 19 19 19 18 18
6 4 3 2 1 4 5 2 4 5 3 3 4 3 3 4 3 2 2 3 3 2 1 2 3 3 2 2 1 2 4 5 6 4 2 4 6 8 9 9 9 9 10 11 13 14 15 15 16 17 18 19 19 19 20 20 19 19 19 19 19 18 18
6 5 3 2 2 6 6 2 7 7 2 3 4 1 1 2 4 3 1 3 4 2 2 3 3 2 3 2 1 1 2 2 4 5 3 3 5 6 7 9 9 10 10 11 11 13 14 14 14 15 15 16 17 17 18 18 18 19 19 19 19 19 18
5 4 4 2 3 5 3 2 6 7 5 6 4 0 2 2 3 3 2 4 4 3 3 4 3 2 3 3 3 1 2 2 3 5 6 4 5 6 7 9 10 10 10 10 11 13 13 12 13 14 14 14 15 15 16 16 17 18 18 17 18 17 17
6 5 4 4 5 6 5 5 6 6 7 6 5 3 2 2 3 3 3 4 3 2 3 3 3 2 3 5 5 4 2 3 3 4 5 4 3 3 5 6 7 8 8 9 10 11 12 12 13 13 12 13 13 14 14 15 16 17 16 17 16 16 15
7 6 5 5 6 6 8 8 7 7 8 6 6 7 4 3 3 2 3 5 3 1 1 1 1 2 4 6 7 5 4 2 2 2 3 4 3 2 2 3 4 5 5 6 7 8 9 10 11 11 11 11 11 12 13 14 15 15 16 16 16 15 15
5 5 5 6 6 7 10 10 8 9 9 7 7 6 4 5 6 4 5 4 2 3 1 1 1 2 4 5 6 5 3 3 3 1 2 3 2 1 1 2 2 4 4 5 6 6 6 7 8 9 9 10 11 12 12 13 14 15 16 16 16 16 15
4 3 3 5 6 8 8 6 5 6 7 8 9 8 7 6 6 5 5 2 3 3 3 3 2 2 4 4 4 3 4 6 6 5 4 5 4 1 1 3 2 3 4 3 4 5 5 6 7 8 9 10 11 11 12 13 13 14 16 15 15 16 15
4 1 1 6 7 7 3 1 2 5 5 6 9 10 9 7 4 4 4 2 3 3 2 1 1 3 5 4 4 4 6 7 6 7 6 7 8 6 4 4 4 4 4 4 4 4 4 4 5 7 8 9 9 10 11 11 12 13 15 15 15 15 15
4 0 3 8 6 3 0 2 1 2 3 5 8 10 12 10 7 7 6 1 3 3 2 2 4 5 5 5 6 7 7 6 6 4 4 6 10 9 8 9 8 7 6 6 7 6 4 3 3 3 5 6 6 7 8 9 10 11 11 12 13 13 13
4 3 6 6 3 2 2 2 1 2 4 5 7 9 10 8 7 7 5 2 3 4 4 4 5 4 4 5 7 7 6 5 6 5 4 6 11 12 9 8 9 9 10 10 9 8 7 6 4 2 1 2 3 4 5 6 8 8 8 10 12 11 12
4 6 6 5 6 5 5 3 2 2 4 4 4 7 7 5 5 6 5 3 4 4 4 5 5 4 4 4 6 6 5 5 7 6 6 8 13 15 13 11 11 13 13 12 10 9 8 8 7 5 3 3 3 4 3 1 1 2 4 7 10 12 13
3 6 6 6 7 6 3 2 2 1 3 3 3 6 6 4 5 7 6 4 5 5 5 6 6 5 5 4 4 5 4 5 6 7 7 10 16 18 16 14 13 13 14 14 13 13 12 11 10 9 9 10 10 10 9 7 7 6 3 1 5 9 12
4 6 6 5 6 4 1 3 3 2 1 1 2 6 4 1 2 5 7 6 6 5 5 6 6 6 4 4 4 4 5 5 5 6 8 12 19 21 17 15 14 13 13 14 15 16 17 15 14 14 15 16 16 15 14 14 13 12 10 8 3 4 11
6 6 6 6 5 2 4 5 3 3 3 1 5 6 2 3 2 2 5 6 6 5 5 5 6 5 2 3 5 5 7 7 6 4 6 12 19 22 19 17 17 15 14 14 14 16 17 16 15 16 18 19 18 17 17 18 17 14 13 13 11 7 10
7 7 7 7 4 1 6 6 5 5 3 3 5 3 1 2 1 1 3 4 6 6 5 4 3 2 3 6 9 9 9 8 8 8 8 11 17 20 20 20 20 19 18 17 16 18 18 17 17 18 21 22 20 18 19 19 18 17 19 21 21 21 22
6 5 6 7 4 2 5 6 6 5 3 3 2 1 1 1 0 1 2 3 5 6 5 3 2 4 6 9 11 11 10 9 10 11 12 14 17 21 23 22 22 22 21 20 20 20 19 17 17 20 24 24 21 21 22 21 21 23 26 28 28 28 29
5 5 6 7 4 2 6 7 6 4 4 2 2 1 0 2 1 0 1 2 3 5 5 3 5 8 8 9 11 12 10 9 11 13 13 15 17 20 23 23 23 23 22 20 20 21 21 20 18 20 25 25 23 23 23 23 26 29 30 30 31 31 31
4 6 4 3 1 3 6 6 2 0 1 3 4 4 2 2 1 1 1 2 3 4 4 6 9 10 9 9 10 11 10 10 12 13 14 15 16 18 21 22 21 22 22 21 20 21 22 21 19 19 23 25 24 24 23 24 28 30 30 30 29 28 29
4 5 2 2 2 3 3 4 2 2 2 3 4 5 3 2 0 1 1 3 4 5 4 7 10 10 10 10 10 11 11 11 12 14 14 15 16 18 20 21 20 21 22 22 22 21 20 19 19 19 21 23 25 23 21 21 23 24 24 24 22 21 21
3 4 1 1 1 1 2 2 1 2 3 2 2 3 3 2 1 1 1 3 6 8 5 5 7 8 10 11 11 11 11 12 13 15 16 16 17 19 20 20 20 21 22 22 23 23 21 19 20 20 20 22 23 20 18 18 18 19 20 21 20 19 18
2 2 2 2 1 1 1 1 1 1 2 2 2 2 1 0 1 2 3 3 5 9 9 7 6 6 8 10 11 11 11 11 13 15 15 16 17 18 18 19 19 19 20 21 22 22 21 20 19 19 19 19 20 19 18 18 18 18 19 20 20 18 17
3 1 2 3 1 1 1 2 2 2 2 2 2 2 2 4 4 4 4 3 4 7 8 7 7 7 8 8 8 8 9 10 12 14 15 16 16 17 18 18 18 19 20 21 21 21 20 18 17 18 18 17 17 18 18 18 17 17 17 17 18 17 16
4 1 3 4 3 3 4 2 1 1 1 3 3 3 4 6 6 6 6 5 6 9 9 8 7 10 12 11 9 8 8 9 10 13 14 16 16 17 18 18 18 20 20 21 21 21 19 17 17 17 17 17 17 17 17 16 16 16 16 16 16 16 15
4 1 4 6 3 1 4 4 2 3 3 4 5 5 5 6 7 8 9 9 10 13 15 13 10 10 13 13 12 11 10 9 10 12 14 16 17 17 18 18 19 20 20 21 21 20 18 17 17 17 17 16 15 15 14 14 14 14 15 15 15 15 14
3 3 5 6 2 3 5 5 4 4 3 3 4 4 4 6 7 9 11 12 12 13 17 20 17 13 13 15 15 13 11 11 12 13 15 16 17 18 18 19 19 19 19 19 20 20 19 18 18 18 17 17 15 15 14 13 13 13 13 14 14 14 14
1 5 7 6 5 7 8 7 6 5 3 3 4 4 3 5 9 10 11 12 13 13 14 17 17 15 16 19 19 15 13 13 14 15 17 18 17 18 18 18 18 18 17 17 18 18 17 17 17 17 17 16 16 15 14 13 13 13 13 13 13 13 13
4 7 8 8 9 10 9 7 7 6 6 6 5 4 5 8 11 13 13 13 14 15 13 12 12 11 15 19 21 20 17 16 17 17 18 18 18 18 18 18 18 17 16 16 16 16 16 16 16 16 16 15 14 14 14 14 14 14 14 14 13 13 12
Wind_Direction
214 245 225 204 250 266 172 224 231 222 277 275 261 272 261 236 262 261 231 254 262 205 175 167 163 166 164 168 177 187 202 217 223 219 205 199 199 200 198 198 198 196 196 197 197 198 196 195 195 195 195 193 194 194 192 192 194 195 197 199 203 206 207
141 254 239 177 184 326 246 230 229 117 249 264 209 261 261 239 251 268 268 270 271 278 223 167 179 191 184 180 182 187 194 208 220 218 208 201 197 199 199 196 195 194 195 196 198 200 199 197 195 195 196 194 194 196 195 195 196 197 198 199 202 204 206
84 139 215 169 132 238 250 254 277 219 235 233 195 230 267 258 257 268 267 270 274 282 322 149 197 205 201 192 184 188 192 197 216 219 211 205 200 198 194 189 190 193 195 196 197 200 199 198 196 194 195 195 195 197 198 199 199 199 200 200 201 204 206
115 147 217 209 154 191 261 271 255 231 255 272 221 228 264 263 261 271 279 275 267 306 349 352 324 265 236 211 189 192 196 191 202 217 214 206 202 193 183 182 188 193 198 198 197 199 198 197 197 195 195 197 199 200 199 200 202 202 203 203 202 204 206
200 193 278 282 173 171 214 234 237 220 189 252 252 235 248 263 265 260 274 276 261 59 0 335 326 318 285 244 207 200 201 192 191 206 214 207 195 183 174 180 187 191 200 202 199 199 198 197 198 196 196 200 203 202 199 199 202 203 204 205 204 205 207
242 203 357 308 231 184 202 193 217 233 206 200 233 238 245 263 270 264 277 287 310 45 1 327 323 323 314 270 227 206 203 197 188 194 211 206 189 184 181 183 193 195 201 204 200 198 199 199 198 197 197 200 202 203 202 200 202 203 204 205 205 205 207
301 58 358 293 250 186 221 208 222 239 232 234 234 239 260 260 252 252 286 297 311 13 358 340 339 342 346 312 241 211 207 200 186 186 199 197 186 187 184 185 198 201 200 202 199 197 199 199 198 198 198 199 200 202 202 201 201 202 204 204 203 204 206
131 126 189 270 321 249 230 205 247 255 254 259 239 250 289 270 243 237 264 267 263 12 10 355 345 350 355 339 209 178 164 164 172 175 180 189 190 188 185 189 199 201 199 199 197 197 197 198 198 198 198 197 198 199 200 201 202 201 200 200 198 200 205
208 195 194 206 261 270 246 158 158 240 236 199 181 189 259 256 249 261 273 268 247 31 18 12 353 7 26 25 85 116 114 121 151 168 175 197 206 195 190 194 198 198 198 196 196 196 195 195 197 198 197 196 195 196 198 199 201 199 196 196 196 198 204
245 243 247 234 229 252 243 165 169 206 199 183 178 192 229 234 249 267 265 274 315 334 340 29 9 11 39 32 43 89 101 108 121 150 177 198 214 208 196 194 196 196 197 198 196 195 195 195 196 196 196 196 195 196 198 199 198 195 193 194 196 198 202
285 297 276 267 327 251 227 233 250 227 195 204 228 246 228 226 271 271 234 267 283 279 300 25 13 357 30 42 28 80 99 111 114 115 149 183 203 209 197 191 195 194 196 200 198 197 199 198 198 198 197 198 198 197 200 201 198 195 194 195 197 199 202
287 308 291 140 154 238 225 243 268 253 228 236 243 266 135 200 248 249 216 277 275 278 335 19 31 353 6 38 23 61 92 109 120 122 133 171 187 191 188 186 189 190 194 199 199 200 203 203 202 202 202 202 202 202 203 202 199 198 198 197 197 200 202
261 280 287 204 193 236 218 196 264 275 287 281 280 67 133 184 254 263 301 295 278 293 334 7 39 2 350 27 32 53 121 142 152 141 141 163 181 183 184 184 187 193 195 195 196 197 200 204 204 203 205 206 205 206 206 204 202 202 201 199 200 202 203
256 242 264 262 248 256 244 225 237 259 273 283 298 280 218 229 280 287 296 282 269 297 324 349 29 35 33 48 42 24 47 133 159 151 131 129 142 160 175 180 187 193 190 189 194 196 198 203 205 204 206 206 207 209 208 205 204 203 201 201 201 201 206
254 234 244 258 262 268 264 254 246 254 264 263 258 257 258 264 270 282 282 262 228 138 340 323 40 86 81 77 71 42 9 34 104 143 125 109 87 84 138 166 176 179 175 175 181 188 196 203 206 208 208 208 209 210 209 209 207 204 202 203 202 204 207
249 220 239 261 274 276 267 260 256 256 262 266 264 272 294 299 295 291 273 258 177 129 137 191 168 114 86 71 74 77 60 45 50 85 129 124 110 88 113 137 166 170 165 170 172 173 182 190 198 204 205 206 209 209 210 210 209 209 209 207 205 207 209
258 198 248 277 280 272 257 257 294 292 277 277 280 276 275 283 293 290 290 325 79 128 165 195 201 105 73 49 29 51 89 77 52 42 54 79 88 91 133 131 149 153 141 154 167 169 178 188 197 202 203 208 211 210 211 210 208 211 213 209 208 210 211
263 158 274 272 264 265 252 141 353 323 308 286 277 273 275 284 285 282 301 0 100 125 143 182 124 69 63 54 22 29 71 83 69 49 38 54 67 52 32 56 68 67 82 105 119 131 157 175 192 204 206 210 213 211 212 212 212 215 216 214 214 215 214
271 295 252 253 251 264 3 111 109 318 307 291 283 280 278 274 266 268 284 304 129 127 105 99 95 87 83 72 46 39 63 90 101 85 57 70 79 64 32 25 31 34 42 58 67 65 71 102 151 201 204 203 204 205 208 211 214 218 218 217 220 220 213
266 258 240 249 291 326 266 237 212 253 266 273 281 278 269 259 250 254 265 251 149 145 144 137 123 122 121 90 57 42 56 93 112 116 108 91 86 79 60 35 27 30 40 50 54 50 49 60 71 75 116 177 186 188 200 213 218 219 217 216 216 209 196
252 269 256 262 296 286 246 227 212 250 276 293 298 289 287 284 258 242 243 223 171 156 153 155 154 164 168 124 70 43 38 62 86 107 118 104 92 87 79 65 47 40 45 52 55 57 60 61 63 66 78 98 96 89 92 115 223 220 223 223 214 202 192
230 270 270 262 270 265 215 159 102 17 310 327 313 286 283 280 244 223 214 208 189 171 167 172 178 190 191 156 91 66 55 55 71 88 95 95 94 91 87 81 67 55 55 58 58 63 66 63 63 72 85 92 87 74 67 66 64 59 41 296 231 218 208
226 254 264 259 266 276 129 123 111 101 92 26 286 263 260 326 281 217 198 198 200 192 188 186 195 209 200 155 109 80 63 42 47 84 97 94 93 91 88 87 81 73 71 72 70 73 72 67 70 81 90 91 84 73 68 68 66 59 47 37 20 235 215
238 245 260 267 269 255 123 136 139 114 109 242 259 249 243 34 4 219 198 195 189 188 200 200 209 238 240 131 118 92 71 48 32 65 109 105 98 96 91 87 85 82 78 75 73 76 77 77 81 91 94 89 81 76 73 71 65 58 56 58 63 94 147
244 241 256 270 276 119 125 147 147 120 134 240 257 265 3 22 42 139 201 205 177 171 197 215 224 313 46 103 115 106 94 79 60 63 84 94 96 98 97 92 89 84 79 76 76 79 82 85 88 93 93 87 84 84 82 76 71 69 74 78 80 85 97
253 255 262 264 267 99 119 141 138 144 206 252 271 277 297 310 42 118 197 206 176 176 201 210 135 99 101 115 117 109 102 97 90 85 85 86 90 94 95 95 93 89 83 76 73 76 81 83 86 91 92 89 87 86 82 78 80 82 81 82 84 83 84
256 256 253 261 273 114 139 151 148 181 235 315 16 308 327 44 19 229 197 201 186 186 191 162 127 124 127 124 113 106 104 104 102 99 94 91 91 92 93 95 96 94 90 81 73 73 77 79 81 87 90 88 85 83 82 83 87 87 85 83 82 82 83
252 261 250 262 335 107 160 185 176 200 292 9 349 311 345 35 315 244 171 197 179 162 160 148 136 133 134 129 116 109 112 111 107 106 104 100 96 93 93 94 96 96 95 91 83 78 77 77 76 80 86 89 88 86 87 89 89 89 88 85 82 80 82
253 292 345 64 73 110 174 229 285 353 345 357 336 308 316 341 308 110 173 189 147 127 149 153 142 140 141 135 125 120 120 116 108 105 104 102 99 97 95 96 96 97 97 96 92 87 82 78 76 78 86 91 91 91 93 94 92 90 90 89 87 86 85
253 276 279 126 138 130 171 236 285 330 313 327 335 305 304 346 46 111 191 191 146 139 160 161 142 146 147 137 130 126 122 116 110 107 106 105 104 102 100 100 100 100 100 98 96 94 90 85 82 83 86 88 90 93 96 97 95 95 94 94 92 90 88
248 241 176 141 165 183 187 230 195 196 273 281 307 306 296 146 173 168 178 195 156 148 158 162 151 147 142 134 129 125 120 116 113 110 109 107 105 104 104 104 105 103 100 97 96 94 91 89 90 91 91 91 93 96 99 100 101 100 98 96 95 92 91
241 269 99 108 144 176 188 263 241 186 206 223 234 242 190 176 180 167 157 168 154 139 142 145 136 119 100 91 95 105 110 111 111 111 110 108 106 106 106 106 105 103 99 96 94 91 89 90 93 95 94 94 96 98 99 102 104 102 99 97 97 96 96
232 235 159 172 194 176 167 201 261 139 167 185 184 185 179 170 163 148 132 118 116 120 118 111 111 108 98 89 83 82 84 90 98 104 108 108 107 106 106 106 104 101 99 97 94 92 92 92 92 92 94 96 98 100 103 105 104 101 99 97 96 95 95
252 269 167 180 201 151 144 150 154 156 167 178 178 175 171 162 152 143 133 116 111 119 121 115 107 101 100 103 103 92 83 89 99 104 107 108 106 105 104 104 103 99 98 99 97 96 96 94 90 89 90 93 95 99 102 104 102 100 99 96 92 90 90
311 63 135 160 142 81 107 122 136 150 161 173 173 168 163 159 151 143 138 129 120 119 119 118 119 120 117 117 115 107 106 117 120 116 112 107 105 106 106 105 104 102 100 100 100 98 98 96 93 90 88 87 87 89 92 95 95 95 96 95 92 89 87
67 112 130 141 124 110 115 118 121 128 127 121 123 114 116 141 142 133 124 119 117 116 113 113 120 133 136 129 124 118 117 122 122 118 114 111 110 111 110 108 106 104 100 98 98 98 98 97 94 91 88 85 84 84 85 86 87 88 88 90 90 88 87
109 121 120 121 119 116 117 114 109 103 91 89 96 90 88 107 122 121 113 105 104 104 95 83 89 113 129 130 130 129 128 130 132 127 121 120 118 114 111 109 106 103 99 95 95 96 96 95 93 90 87 83 81 82 81 79 80 80 80 81 82 82 83